Regional Weather Roundup
Issued by NWS

Home | Current Version | Previous Version | Graphics & Text | Print | Product List | Glossary On
Versions: 1 2 3 4 5 6 7 8 9 10 11 12 13 14 15 16 17 18 19 20 21 22 23 24 25 26 27 28 29 30 31 32 33 34 35 36 37 38 39 40 41 42 43 44 45 46 47 48 49 50
000
ASUS43 KIND 262009
RWRIN

WEATHER ROUNDUP FOR INDIANA
NATIONAL WEATHER SERVICE INDIANAPOLIS IN
400 PM EDT FRI AUG 26 2016

NOTE: "FAIR" INDICATES FEW OR NO CLOUDS BELOW 12,000 FEET WITH NO
SIGNIFICANT WEATHER AND/OR OBSTRUCTIONS TO VISIBILITY.

* - STATION DOES NOT REPORT WEATHER SUCH AS PRECIPITATION OR FOG.

+ - STATION NOT QUALITY CONTROLLED BY THE NATIONAL WEATHER SERVICE.
    USE DATA WITH CAUTION...ESPECIALLY DEWPOINT AND RELATIVE
    HUMIDITY OBSERVATIONS.

INZ001>003-010>013-019-020-262100-
NORTHWEST INDIANA

CITY           SKY/WX    TMP DP  RH WIND       PRES   REMARKS
GARY /AIRPORT/ PTSUNNY   77  68  73 N7        30.14F
KNOX *+        CLOUDY    81  41  24 N3        30.12F
LA PORTE +     CLOUDY    83  65  53 CALM      30.13F
MICHIGAN CITY+ SUNNY     77  68  73 CALM      30.13F
MONTICELLO +   MOSUNNY   84  68  59 E6        30.09F
RENSSELAER +   CLOUDY    81  70  69 NE6       30.10F
VALPARAISO     CLOUDY    80  63  55 E6        30.13F

$$

LMZ046-743>745-262100-
SOUTHERN LAKE MICHIGAN

STATION/POSITION TIME  TEMP    WIND        PRES    WAVE
                       AIR SEA DIR/SP/G            HT
                 (UTC) (F)     (DEG/KT/KT) (MB)    (FT)
BURNS HARBOR     1900   75      40/  9/ 11 1021.0F
MICHIGAN CITY    1900   73      10/ 10/ 11   N/A
5NW MICH CITY    2000   74 75   20/ 10/ 12   N/A     2

$$

INZ004-005-014>016-021>024-262100-
NORTH CENTRAL INDIANA

CITY           SKY/WX    TMP DP  RH WIND       PRES   REMARKS
GOSHEN         CLOUDY    83  62  49 CALM      30.13F
LOGANSPORT +   PTSUNNY   82  68  61 E3        30.11F
PERU/GRISSOM   MOSUNNY   83  71  66 E6        30.09F
ROCHESTER +    CLOUDY    86  70  58 NE3       30.12F
SOUTH BEND     CLOUDY    83  63  50 VRB3      30.13F
WARSAW +       SUNNY     82  70  65 E3        30.12F

$$

INZ006>009-017-018-025>027-262100-
NORTHEAST INDIANA

CITY           SKY/WX    TMP DP  RH WIND       PRES   REMARKS
ANGOLA *+      SUNNY     84  63  48 W3        30.14F
AUBURN +       SUNNY     82  59  44 CALM      30.13F
FORT WAYNE     MOSUNNY   85  63  47 CALM      30.12F
HUNTINGTON +   SUNNY    N/A N/A N/A NE5       30.12F

$$

INZ028-029-035-036-043>045-051>053-262100-
WEST CENTRAL INDIANA

CITY           SKY/WX    TMP DP  RH WIND       PRES   REMARKS
CRAWFORDSVL +  MOSUNNY   85  76  74 CALM      30.07F
GREENCASTLE +  CLOUDY    82  79  89 NE7       30.08F
LAFAYETTE      PTSUNNY   82  72  71 N6        30.07F
TERRE HAUTE    CLOUDY    78  65  63 VRB3      30.07S THUNDER

$$

INZ030>032-037>040-046>048-054>057-064-065-262100-
CENTRAL INDIANA

CITY           SKY/WX    TMP DP  RH WIND       PRES   REMARKS
ANDERSON       MOSUNNY   84  73  70 N6        30.11F
COLUMBUS       CLOUDY    84  77  79 CALM      30.08F
INDIANAPOLIS   PTSUNNY   90  73  57 CALM      30.06F HX  98
-EAGLE CREEK   SUNNY     90  71  53 CALM      30.06F HX  96
KOKOMO *+      PTSUNNY   84  73  70 E9        30.09
MARION +       SUNNY     82  71  68 E6        30.11F HAZE
MT COMFORT *+  CLOUDY    88  73  62 CALM      30.09F HX  96
SHELBYVILLE    MOSUNNY   87  74  64 CALM      30.07F HX  95
ZIONSVILLE +   SUNNY     85  74  68 CALM      30.09F

$$

INZ033-034-041-042-049-050-058-059-262100-
EAST CENTRAL INDIANA

CITY           SKY/WX    TMP DP  RH WIND       PRES   REMARKS
MUNCIE         MOSUNNY   88  73  61 NE5       30.10F HX  95

$$

INZ060-061-067>069-081>083-085>088-262100-
SOUTHWEST INDIANA

CITY           SKY/WX    TMP DP  RH WIND       PRES   REMARKS
EVANSVILLE     MOSUNNY   92  72  51 E6        30.05F HX  99
HUNTINGBURG *+ MOSUNNY   91  72  52 CALM      30.06F HX  98
WASHINGTON +   SUNNY     91  73  55 MISG      30.05S HX  99

$$

INZ062-063-066-070>080-084-089>092-262100-
SOUTH CENTRAL AND SOUTHEAST INDIANA

CITY           SKY/WX    TMP DP  RH WIND       PRES   REMARKS
BLOOMINGTON    PTSUNNY   90  73  57 SW8       30.07F HX  98
MADISON *+     SUNNY     91  68  46 W3        30.10F HX  95

$$





USA.gov is the U.S. government's official web portal to all federal, state and local government web resources and services.